[[{"header":{"parameterUnit":"m.s-1","parameterCategory":1,"la1":30.2991,"la2":30.254,"lo1":-89.0895,"lo2":-89.0444,"dy":0.0017,"dx":0.0017,"nx":28,"ny":28,"refTime":"2024-02-09T03:00:00:Z","depth":0,"parameterNumber":2,"parameterNumberName":"U-component_of_WINDS"},"data":[0,0,0,0,0,0,0,0,0,0,0,0,0,0,0,0,0,0,0,0,0,0,0,0,0,0,0,0,0,0,0,0,0,0,0,0,0,0,0,0,0,0,0,0,0,0,0,0,0,0,0,0,0,0,0,0,0,0,-2.5069,-2.5069,0,-2.514,-2.514,-2.5141,-2.5137,-2.5136,-2.5135,-2.5134,-2.5207,-2.521,-2.5213,0,0,0,0,0,0,0,0,0,0,0,0,0,-2.4929,-2.4932,-2.5068,-2.5069,-2.507,-2.514,-2.514,-2.5141,-2.5137,-2.5136,-2.5134,-2.5133,-2.5206,-2.521,-2.5213,0,0,0,0,0,0,0,0,0,0,0,0,0,-2.4994,-2.4933,-2.5068,-2.5076,-2.5078,-2.5139,-2.5141,-2.5142,-2.5137,-2.5136,-2.5134,-2.5133,-2.5205,-2.5209,-2.5214,-2.5272,0,0,-2.5227,-2.5229,0,0,0,0,0,0,0,0,-2.499,-2.4999,-2.5074,-2.5076,-2.5078,-2.5128,-2.5118,-2.5186,-2.5138,-2.5115,-2.5134,-2.5132,-2.5182,-2.5188,-2.5205,-2.5276,-2.5279,-2.5228,-2.523,-2.5232,-2.5233,0,0,0,0,0,0,0,-2.4986,-2.4996,-2.5097,-2.5075,-2.5077,-2.5077,-2.5084,-2.5131,-2.5156,-2.5116,-2.5116,-2.5125,-2.5183,-2.5201,-2.5207,-2.528,-2.5227,-2.5231,-2.5234,-2.5236,-2.5402,-2.5403,0,0,0,0,0,0,-2.498,-2.4992,-2.5094,-2.5099,-2.5029,-2.508,-2.5089,-2.5113,-2.5156,-2.5161,-2.5126,-2.5124,-2.5194,-2.5202,-2.5209,-2.528,-2.5232,-2.5236,-2.5239,-2.54,-2.5402,-2.5404,0,0,0,0,0,0,-2.4977,-2.4989,-2.5091,-2.5046,-2.5059,-2.5084,-2.5112,-2.5115,-2.5133,-2.5163,-2.5167,-2.514,-2.5193,-2.5203,-2.5256,-2.5282,-2.5238,-2.5242,-2.5398,-2.5401,-2.5403,-2.5422,0,0,0,0,0,0,-2.4973,-2.4988,-2.501,-2.5046,-2.5061,-2.5137,-2.5114,-2.5118,-2.5141,-2.5139,-2.5177,-2.5182,-2.5193,-2.525,-2.5261,-2.5288,-2.5246,-2.5396,-2.5399,-2.5402,-2.5419,-2.5425,-2.543,0,0,0,0,0,-2.4968,-2.5013,-2.5011,-2.5023,-2.5089,-2.5139,-2.5147,-2.5159,-2.5143,-2.5166,-2.5185,-2.5181,-2.5278,-2.5255,-2.5268,-2.5296,-2.5394,-2.5398,-2.5402,-2.5417,-2.5424,-2.543,0,0,0,0,0,0,-2.4979,-2.5018,-2.5016,-2.5074,-2.5103,-2.5138,-2.5167,-2.5166,-2.52,-2.5197,-2.521,-2.5219,-2.5272,-2.529,-2.5264,-2.5355,-2.5334,-2.5341,-2.5341,-2.5348,-2.5353,-2.5347,-2.5249,0,0,0,0,0,-2.4988,-2.5025,-2.5057,-2.5105,-2.512,-2.5141,-2.5163,-2.5169,-2.5199,-2.5212,-2.5235,-2.5265,-2.5302,-2.5326,-2.5362,-2.5422,-2.543,-2.5448,-2.5453,-2.5458,-2.5463,-2.5495,-2.5503,-2.5417,-2.5417,-2.5417,0,0,-2.5008,-2.5033,-2.5056,-2.5108,-2.5131,-2.5169,-2.5151,-2.5192,-2.522,-2.5218,-2.5269,-2.5287,-2.5322,-2.5378,-2.5405,-2.5395,-2.5489,-2.5463,-2.5466,-2.5469,-2.55,-2.5508,-2.5516,-2.542,-2.5419,-2.5419,0,0,-2.5062,-2.5086,-2.5128,-2.5151,-2.5187,-2.52,-2.5211,-2.5246,-2.5257,-2.5309,-2.5309,-2.5343,-2.5407,-2.5431,-2.5452,-2.5516,-2.5513,-2.5528,-2.5555,-2.5587,-2.5594,-2.56,-2.5622,-2.5629,-2.5533,-2.5533,-2.5533,0,-2.5082,-2.5138,-2.515,-2.5191,-2.5213,-2.5214,-2.5256,-2.5279,-2.5324,-2.534,-2.5329,-2.5409,-2.5433,-2.5495,-2.551,-2.5527,-2.5539,-2.5523,-2.5592,-2.5598,-2.5604,-2.5625,-2.5633,-2.5534,-2.5534,-2.5534,-2.5534,0,-2.516,-2.52,-2.523,-2.5273,-2.5299,-2.5341,-2.5359,-2.5384,-2.5389,-2.5404,-2.5456,-2.5485,-2.5526,-2.5542,-2.5546,-2.5604,-2.5597,-2.5589,-2.5568,-2.5613,-2.5633,-2.5641,-2.5536,-2.5536,-2.5536,-2.5535,0,0,-2.5223,-2.5272,-2.5283,-2.5302,-2.5341,-2.5372,-2.5414,-2.5454,-2.5475,-2.5507,-2.5542,-2.5597,-2.5589,-2.5613,-2.5621,-2.5648,-2.5696,-2.5637,-2.5637,-2.5646,-2.5761,-2.5766,-2.5775,-2.5695,-2.5697,-2.5698,-2.5758,0,-2.528,-2.5354,-2.5366,-2.543,-2.5466,-2.5467,-2.5504,-2.5532,-2.5547,-2.558,-2.5598,-2.5636,-2.5623,-2.5638,-2.5665,-2.5684,-2.5719,-2.5681,-2.5728,-2.5729,-2.5717,-2.5786,-2.5792,-2.5846,-2.5766,-2.5767,-2.5768,0,-2.5357,-2.539,-2.5458,-2.5492,-2.5507,-2.554,-2.5577,-2.5609,-2.5641,-2.5651,-2.5677,-2.5682,-2.5725,-2.5703,-2.5764,-2.5737,-2.5757,-2.577,-2.5772,-2.5776,-2.575,-2.5791,-2.5864,-2.5872,-2.5781,-2.578,-2.5779,0,-2.5394,-2.5456,-2.5504,-2.5521,-2.5562,-2.5585,-2.5603,-2.5634,-2.5657,-2.5691,-2.5706,-2.5744,-2.5765,-2.5794,-2.5809,-2.5792,-2.5868,-2.5848,-2.5877,-2.5876,-2.5891,-2.589,-2.5968,-2.5907,-2.5906,-2.5906,-2.5906,0,-2.5457,-2.5498,-2.5522,-2.5551,-2.5598,-2.5611,-2.5657,-2.5675,-2.5702,-2.5735,-2.5739,-2.577,-2.5788,-2.5822,-2.5834,-2.5882,-2.5892,-2.59,-2.5903,-2.5899,-2.5898,-2.5912,-2.5908,-2.5909,-2.5908,-2.5908,-2.5907,0,-2.5506,-2.5523,-2.5576,-2.5611,-2.562,-2.5653,-2.5682,-2.5711,-2.5727,-2.5769,-2.578,-2.5804,-2.5845,-2.5863,-2.5912,-2.5921,-2.5974,-2.5975,-2.5963,-2.5964,-2.5991,-2.5988,-2.608,-2.6093,-2.6024,-2.6024,-2.6025,0,-2.5543,-2.5575,-2.5613,-2.5635,-2.5654,-2.569,-2.5714,-2.5729,-2.5753,-2.5792,-2.5817,-2.5857,-2.589,-2.5954,-2.5976,-2.6015,-2.6015,-2.6045,-2.6021,-2.6016,-2.6014,-2.6012,-2.6015,-2.6049,-2.6049,-2.605,-2.605,0,-2.5608,-2.5616,-2.5649,-2.5686,-2.5715,-2.5745,-2.5774,-2.5792,-2.5812,-2.584,-2.588,-2.5906,-2.5957,-2.5996,-2.6036,-2.6055,-2.6056,-2.6058,-2.6066,-2.6063,-2.6054,-2.6058,-2.5974,-2.6055,-2.6055,-2.6055,-2.6054,-2.6054,-2.5652,-2.568,-2.5711,-2.5749,-2.5772,-2.58,-2.5828,-2.5847,-2.5882,-2.5923,-2.5931,-2.5974,-2.6006,-2.6059,-2.6079,-2.6114,-2.6107,-2.6119,-2.6122,-2.6125,-2.6126,-2.605,-2.6121,-2.6121,-2.6121,-2.6121,-2.6121,0,-2.5716,-2.5736,-2.5771,-2.5811,-2.5841,-2.5839,-2.5872,-2.5897,-2.5935,-2.5964,-2.5996,-2.6043,-2.6082,-2.6107,-2.6147,-2.6169,-2.6171,-2.6179,-2.6177,-2.6181,-2.6131,-2.6119,-2.6177,-2.6177,-2.6177,-2.6177,-2.6177,-2.6177,-2.5753,-2.58,-2.5811,-2.587,-2.589,-2.5932,-2.595,-2.5976,-2.5999,-2.6051,-2.6083,-2.6099,-2.6127,-2.6168,-2.6204,-2.621,-2.6224,-2.6232,-2.6239,-2.6191,-2.6185,-2.6179,-2.6168,-2.6236,-2.6236,-2.6286,-2.6287,-2.6287]},{"header":{"parameterUnit":"m.s-1","parameterCategory":1,"la1":30.2991,"la2":30.254,"lo1":-89.0895,"lo2":-89.0444,"dy":0.0017,"dx":0.0017,"nx":28,"ny":28,"refTime":"2024-02-09T03:00:00:Z","depth":0,"parameterNumber":3,"parameterNumberName":"V-component_of_WINDS"},"data":[0,0,0,0,0,0,0,0,0,0,0,0,0,0,0,0,0,0,0,0,0,0,0,0,0,0,0,0,0,0,0,0,0,0,0,0,0,0,0,0,0,0,0,0,0,0,0,0,0,0,0,0,0,0,0,0,0,0,2.1806,2.1807,0,2.1919,2.192,2.1921,2.1956,2.1955,2.1955,2.1954,2.2068,2.2071,2.2075,0,0,0,0,0,0,0,0,0,0,0,0,0,2.1621,2.1624,2.1806,2.1807,2.1809,2.1918,2.192,2.1921,2.1956,2.1955,2.1955,2.1954,2.2067,2.2071,2.2075,0,0,0,0,0,0,0,0,0,0,0,0,0,2.1714,2.1625,2.1806,2.1839,2.1843,2.1918,2.192,2.1922,2.1956,2.1955,2.1954,2.1954,2.2065,2.2071,2.2076,2.2125,0,0,2.2092,2.2094,0,0,0,0,0,0,0,0,2.1709,2.1721,2.1833,2.1837,2.1842,2.1922,2.1897,2.199,2.1956,2.1913,2.1954,2.1953,2.202,2.2029,2.2052,2.213,2.2135,2.2093,2.2096,2.2098,2.21,0,0,0,0,0,0,0,2.1702,2.1716,2.1851,2.1834,2.184,2.1849,2.1861,2.1914,2.197,2.1917,2.192,2.1933,2.2022,2.2047,2.2055,2.2137,2.2092,2.2097,2.21,2.2103,2.2264,2.2265,0,0,0,0,0,0,2.169,2.1711,2.1847,2.1854,2.1772,2.1853,2.1866,2.1897,2.1969,2.198,2.1933,2.1934,2.2038,2.2049,2.2059,2.2124,2.2098,2.2103,2.2106,2.2263,2.2264,2.2265,0,0,0,0,0,0,2.1686,2.1702,2.1842,2.1783,2.1802,2.1857,2.1891,2.19,2.1924,2.1982,2.1992,2.1948,2.2038,2.2052,2.2109,2.2128,2.2105,2.211,2.2261,2.2263,2.2264,2.2251,0,0,0,0,0,0,2.1681,2.17,2.172,2.1783,2.1805,2.1891,2.1892,2.1903,2.1934,2.1936,2.1998,2.2008,2.2038,2.2101,2.2114,2.2135,2.2114,2.226,2.2262,2.2264,2.225,2.2252,2.2254,0,0,0,0,0,2.1674,2.1711,2.172,2.1737,2.183,2.1892,2.1904,2.1939,2.1935,2.1955,2.1992,2.2006,2.2123,2.2106,2.2122,2.2144,2.2259,2.2261,2.2264,2.2249,2.2252,2.2254,0,0,0,0,0,0,2.1647,2.172,2.1731,2.179,2.1834,2.1897,2.1924,2.194,2.1986,2.1986,2.2026,2.204,2.2095,2.2125,2.2105,2.2197,2.2192,2.2197,2.2175,2.2178,2.218,2.2172,2.2119,0,0,0,0,0,2.1648,2.1692,2.1753,2.1799,2.1821,2.1868,2.1896,2.1919,2.1967,2.1986,2.2027,2.2073,2.212,2.215,2.2197,2.2254,2.2269,2.2277,2.2279,2.228,2.2285,2.232,2.2324,2.2273,2.2273,2.2273,0,0,2.165,2.1696,2.1721,2.1795,2.1832,2.1877,2.1884,2.1931,2.1965,2.1993,2.2051,2.2082,2.2136,2.2194,2.2221,2.2221,2.2302,2.2283,2.2284,2.2288,2.2323,2.2328,2.2332,2.2275,2.2274,2.2274,0,0,2.1679,2.1716,2.176,2.1797,2.1854,2.1885,2.1896,2.1957,2.1979,2.2038,2.206,2.2101,2.2181,2.2219,2.2249,2.2292,2.2307,2.2306,2.2316,2.2349,2.2353,2.2357,2.2375,2.238,2.231,2.231,2.231,0,2.1675,2.1744,2.178,2.1827,2.1859,2.1887,2.1932,2.1966,2.2034,2.2056,2.2054,2.2157,2.2194,2.2263,2.2274,2.2296,2.231,2.23,2.235,2.2354,2.2358,2.2376,2.2382,2.231,2.231,2.231,2.231,0,2.1737,2.1785,2.1813,2.188,2.1915,2.196,2.2004,2.2035,2.2055,2.2087,2.2147,2.2193,2.225,2.2268,2.2287,2.234,2.2338,2.2342,2.2338,2.2362,2.2379,2.2386,2.2309,2.2309,2.2309,2.231,0,0,2.1752,2.1839,2.1849,2.1881,2.1945,2.1983,2.203,2.2087,2.2114,2.216,2.2201,2.2269,2.2274,2.2308,2.2332,2.236,2.2395,2.2362,2.2364,2.2368,2.2458,2.2456,2.2463,2.2404,2.2405,2.2407,2.2454,0,2.179,2.1876,2.191,2.198,2.2026,2.2053,2.2094,2.2138,2.2169,2.2212,2.2246,2.2294,2.2296,2.2317,2.2347,2.2384,2.2413,2.2381,2.2444,2.2446,2.2433,2.2472,2.2469,2.2512,2.2461,2.2462,2.2463,0,2.1847,2.1895,2.1969,2.2031,2.2051,2.2087,2.2143,2.2183,2.2235,2.2255,2.2293,2.2316,2.2366,2.2358,2.2429,2.2406,2.2434,2.2456,2.2458,2.2468,2.2457,2.2484,2.2526,2.2534,2.2473,2.2472,2.2472,0,2.1853,2.1936,2.1993,2.2018,2.209,2.2115,2.2146,2.2197,2.2229,2.2278,2.23,2.2352,2.2382,2.2423,2.2459,2.2449,2.2528,2.2521,2.2547,2.2547,2.2565,2.2563,2.2614,2.2578,2.2578,2.2578,2.2578,0,2.1894,2.1939,2.1997,2.2032,2.2083,2.2122,2.2172,2.2205,2.2249,2.2291,2.2317,2.2355,2.24,2.2444,2.2473,2.2529,2.2541,2.256,2.2568,2.2559,2.2557,2.258,2.2579,2.258,2.2579,2.2579,2.2579,0,2.1911,2.1951,2.2014,2.2077,2.2094,2.213,2.2184,2.2219,2.2251,2.2304,2.2319,2.2369,2.2423,2.2463,2.2532,2.2551,2.2612,2.2618,2.2595,2.2599,2.2624,2.2622,2.2693,2.2705,2.2658,2.2659,2.2659,0,2.1935,2.1971,2.2038,2.2068,2.21,2.2147,2.2181,2.222,2.2255,2.2316,2.2344,2.24,2.2447,2.2532,2.2575,2.2628,2.2638,2.2659,2.2646,2.2637,2.2641,2.2639,2.2644,2.2661,2.2661,2.2662,2.2662,0,2.1975,2.1993,2.2041,2.2097,2.2136,2.2182,2.2227,2.225,2.2298,2.2335,2.2391,2.2427,2.2499,2.2555,2.2613,2.2645,2.2662,2.2665,2.2675,2.2668,2.2654,2.2665,2.2603,2.2664,2.2664,2.2664,2.2664,2.2664,2.1998,2.2032,2.2085,2.2138,2.2177,2.2219,2.2256,2.2293,2.234,2.2403,2.2422,2.2481,2.2532,2.2612,2.2645,2.2691,2.2691,2.2703,2.2707,2.271,2.2711,2.2645,2.2701,2.2701,2.2701,2.2701,2.2701,0,2.2041,2.2077,2.2125,2.2189,2.2231,2.2243,2.2295,2.2329,2.2381,2.2427,2.2473,2.2538,2.2593,2.264,2.2697,2.2725,2.2734,2.2739,2.2738,2.2746,2.2707,2.2695,2.273,2.273,2.273,2.273,2.273,2.273,2.2069,2.2128,2.2153,2.2231,2.2266,2.2325,2.2353,2.2393,2.2431,2.2503,2.2548,2.2579,2.2626,2.2687,2.2737,2.275,2.2771,2.2773,2.2788,2.2752,2.2748,2.2745,2.2734,2.2777,2.2777,2.2824,2.2824,2.2824]}]]